Погода в Кокореве

Россия / Кировская область     57°15′02″N   49°33′53″E
темп.,
°C
ветер,
м/с
пор.,
м/с
влажн.,
%
обл.,
%
осадки,
мм/ч
давл.,
гПа
погр.,
м
22 января, сб
сб2200:00−14юв61394100 0.0 1018251
03:00−14юв61494100 0.0 1019273
06:00−13юв51394100 0.0 1019328
09:00−12юв6129398 0.0 1020352
12:00−10юв51193100 0.1 1021411
15:00−9юв51194100 0.3 1022435
18:00−8юв61294100 0.3 1022417
21:00−8юв51195100 0.4 1023406
23 января, вс
вс2300:00−6юв51295100 0.9 1023506
03:00−6ююв61195100 2.5 1024612
06:00−7ююв5109388 0.4 1025351
09:00−8ююв4996100 0.5 1028236
12:00−6ю3795100 0.1 1030308
15:00−6ю2496100 0.1 1032149
18:00−9ю2298100 0.1 103337
21:00−10ююз1198100 0.1 103510
24 января, пн
пн2400:00−13з119994 0.0 10369
03:00−16зсз11100100 0.1 10389
06:00−17зсз11100100 0.0 10399
09:00−14сз12100100 0.1 103973
12:00−8сз129598 0.1 1039173
15:00−12юз119866 0.1 103910
18:00−17ююз22100100 0.0 10399
21:00−19юз22100100 0.0 10399
25 января, вт
вт2500:00−19ююз22100100 0.0 103815
03:00−19юз12100100 0.1 10369
06:00−17ююз22100100 0.0 103433
09:00−17ююз249722 0.1 103344
12:00−10ююз36875 0.0 1031180
15:00−11ю36925 0.0 102995
18:00−14ю410925 0.0 1028135
21:00−16ююз389226 0.0 1027117
26 января, ср
ср2600:00−17ю389431 0.0 1026103
03:00−17ю379872 0.0 102586
06:00−17ю389858 0.0 1024112
09:00−14ю499687 0.1 1024196
12:00−11ю4793100 0.3 1023257
15:00−10ююв479591 0.7 1023259
18:00−12ююв3696100 0.3 1023185
21:00−11ю3796100 1.1 1022234